When you browse on this site, cookies collect data to enhance your experience and personalize the content and advertising you see.
Visit our Privacy Policy to learn more. By continuing to use the site, you agree to this use of cookies and data.
  • In Austria
  • List of Countries
  • For 7 days
  • Water Temperature
  • Satellite Maps
  • Weather Map
  • News
  • Weather Widgets
  • user-avatar
    Login

    Hourly Weather Rousse

    Today, 18 April, Thursday

    Time Temperature Precipitation Wind Pressure Humidity
    00:00 +5°C° 0 mm 3 mps 753 mmHg 85%
    01:00 +5°C° 0 mm 2 mps 753 mmHg 87%
    02:00 +5°C° 0 mm 2 mps 753 mmHg 89%
    03:00 +5°C° 0 mm 2 mps 753 mmHg 90%
    04:00 +4°C° 0 mm 2 mps 753 mmHg 92%
    05:00 +4°C° 0 mm 2 mps 753 mmHg 93%
    06:00 +6°C° 0 mm 2 mps 753 mmHg 88%
    07:00 +7°C° 0 mm 2 mps 754 mmHg 82%
    08:00 +9°C° 0 mm 2 mps 754 mmHg 77%
    09:00 +10°C° 0 mm 2 mps 754 mmHg 74%
    10:00 +11°C° 0 mm 3 mps 754 mmHg 71%
    11:00 +12°C° 0 mm 3 mps 754 mmHg 69%
    12:00 +11°C° 0.6 mm 4 mps 754 mmHg 75%
    13:00 +9°C° 0.6 mm 5 mps 754 mmHg 82%
    14:00 +7°C° 0.6 mm 5 mps 754 mmHg 89%
    15:00 +8°C° 0.3 mm 4 mps 755 mmHg 84%
    16:00 +10°C° 0.3 mm 3 mps 755 mmHg 80%
    17:00 +11°C° 0.3 mm 3 mps 755 mmHg 75%
    18:00 +10°C° 0 mm 2 mps 755 mmHg 79%
    19:00 +9°C° 0 mm 2 mps 755 mmHg 84%
    20:00 +9°C° 0 mm 1 mps 755 mmHg 88%
    21:00 +8°C° 0 mm 1 mps 755 mmHg 89%
    22:00 +8°C° 0 mm 1 mps 756 mmHg 90%
    23:00 +7°C° 0 mm 1 mps 756 mmHg 90%

    Tomorrow, 19 April, Friday

    Time Temperature Precipitation Wind Pressure Humidity
    00:00 +7°C° 0 mm 1 mps 756 mmHg 91%
    01:00 +6°C° 0 mm 2 mps 756 mmHg 92%
    02:00 +6°C° 0 mm 2 mps 756 mmHg 93%
    03:00 +6°C° 0 mm 2 mps 756 mmHg 93%
    04:00 +6°C° 0 mm 2 mps 755 mmHg 93%
    05:00 +6°C° 0 mm 2 mps 755 mmHg 93%
    06:00 +7°C° 0.1 mm 2 mps 755 mmHg 90%
    07:00 +8°C° 0.1 mm 3 mps 755 mmHg 88%
    08:00 +9°C° 0.1 mm 3 mps 754 mmHg 86%
    09:00 +10°C° 0.4 mm 4 mps 754 mmHg 80%
    10:00 +12°C° 0.4 mm 4 mps 754 mmHg 74%
    11:00 +13°C° 0.4 mm 4 mps 753 mmHg 68%
    12:00 +14°C° 1 mm 4 mps 753 mmHg 64%
    13:00 +14°C° 1 mm 4 mps 753 mmHg 60%
    14:00 +15°C° 1 mm 4 mps 752 mmHg 56%
    15:00 +13°C° 1.9 mm 3 mps 752 mmHg 65%
    16:00 +13°C° 1.9 mm 2 mps 752 mmHg 74%
    17:00 +12°C° 1.9 mm 1 mps 752 mmHg 82%
    18:00 +10°C° 0.6 mm 2 mps 752 mmHg 82%
    19:00 +9°C° 0.6 mm 2 mps 753 mmHg 82%
    20:00 +8°C° 0.6 mm 2 mps 754 mmHg 81%
    21:00 +8°C° 0 mm 3 mps 754 mmHg 85%
    22:00 +6°C° 0 mm 4 mps 755 mmHg 88%
    23:00 +5°C° 0 mm 5 mps 755 mmHg 91%

    Day after tomorrow, 20 April, Saturday

    Time Temperature Precipitation Wind Pressure Humidity
    00:00 +4°C° 0 mm 4 mps 756 mmHg 91%
    01:00 +4°C° 0 mm 3 mps 756 mmHg 90%
    02:00 +4°C° 0 mm 2 mps 756 mmHg 90%
    03:00 +4°C° 0 mm 1 mps 756 mmHg 89%
    04:00 +4°C° 0 mm 1 mps 756 mmHg 89%
    05:00 +4°C° 0 mm 1 mps 756 mmHg 88%
    06:00 +5°C° 0 mm 1 mps 757 mmHg 82%
    07:00 +6°C° 0 mm 2 mps 757 mmHg 77%
    08:00 +8°C° 0 mm 2 mps 757 mmHg 71%
    09:00 +9°C° 0.2 mm 3 mps 757 mmHg 65%
    10:00 +10°C° 0.2 mm 4 mps 757 mmHg 59%
    11:00 +10°C° 0.2 mm 5 mps 757 mmHg 53%
    12:00 +12°C° 0.1 mm 5 mps 757 mmHg 51%
    13:00 +12°C° 0.1 mm 5 mps 756 mmHg 48%
    14:00 +13°C° 0.1 mm 5 mps 756 mmHg 46%
    15:00 +12°C° 0 mm 5 mps 756 mmHg 46%
    16:00 +12°C° 0 mm 4 mps 756 mmHg 47%
    17:00 +12°C° 0 mm 3 mps 756 mmHg 47%
    18:00 +12°C° 0 mm 2 mps 756 mmHg 51%
    19:00 +9°C° 0 mm 2 mps 756 mmHg 55%
    20:00 +9°C° 0 mm 1 mps 756 mmHg 59%
    21:00 +7°C° 0 mm 0 mps 756 mmHg 60%
    22:00 +7°C° 0 mm 0 mps 756 mmHg 61%
    23:00 +6°C° 0 mm 0 mps 757 mmHg 63%

    21 April, Sunday

    Time Temperature Precipitation Wind Pressure Humidity
    00:00 +7°C° 0 mm 1 mps 756 mmHg 63%
    01:00 +7°C° 0 mm 1 mps 756 mmHg 63%
    02:00 +7°C° 0 mm 1 mps 756 mmHg 64%
    03:00 +7°C° 0 mm 1 mps 756 mmHg 64%
    04:00 +7°C° 0 mm 1 mps 755 mmHg 65%
    05:00 +7°C° 0 mm 1 mps 755 mmHg 66%
    06:00 +8°C° 0 mm 1 mps 755 mmHg 64%
    07:00 +8°C° 0 mm 2 mps 755 mmHg 62%
    08:00 +10°C° 0 mm 2 mps 755 mmHg 60%
    09:00 +12°C° 0 mm 2 mps 755 mmHg 56%
    10:00 +13°C° 0 mm 2 mps 755 mmHg 53%
    11:00 +15°C° 0 mm 2 mps 754 mmHg 49%
    12:00 +15°C° 0.2 mm 2 mps 754 mmHg 49%
    13:00 +16°C° 0.2 mm 1 mps 754 mmHg 48%
    14:00 +16°C° 0.2 mm 1 mps 753 mmHg 48%
    15:00 +16°C° 0.3 mm 1 mps 753 mmHg 48%
    16:00 +16°C° 0.3 mm 1 mps 753 mmHg 48%
    17:00 +15°C° 0.3 mm 0 mps 752 mmHg 49%
    18:00 +14°C° 0.1 mm 1 mps 753 mmHg 56%
    19:00 +13°C° 0.1 mm 2 mps 753 mmHg 63%
    20:00 +10°C° 0.1 mm 3 mps 753 mmHg 70%
    21:00 +10°C° 0 mm 3 mps 753 mmHg 72%
    22:00 +9°C° 0 mm 3 mps 753 mmHg 74%
    23:00 +8°C° 0 mm 3 mps 753 mmHg 76%

    22 April, Monday

    Time Temperature Precipitation Wind Pressure Humidity
    00:00 +8°C° 0 mm 3 mps 753 mmHg 77%
    01:00 +8°C° 0 mm 3 mps 753 mmHg 78%
    02:00 +7°C° 0 mm 2 mps 753 mmHg 79%
    03:00 +7°C° 0 mm 2 mps 753 mmHg 79%
    04:00 +6°C° 0 mm 2 mps 753 mmHg 79%
    05:00 +7°C° 0 mm 1 mps 753 mmHg 80%
    06:00 +8°C° 0 mm 2 mps 753 mmHg 76%
    07:00 +9°C° 0 mm 2 mps 753 mmHg 71%
    08:00 +12°C° 0 mm 2 mps 754 mmHg 67%
    09:00 +12°C° 0 mm 3 mps 754 mmHg 61%
    10:00 +14°C° 0 mm 3 mps 754 mmHg 56%
    11:00 +17°C° 0 mm 3 mps 754 mmHg 50%
    12:00 +18°C° 0 mm 3 mps 754 mmHg 49%
    13:00 +18°C° 0 mm 4 mps 753 mmHg 47%
    14:00 +19°C° 0 mm 4 mps 753 mmHg 46%
    15:00 +18°C° 0.1 mm 4 mps 753 mmHg 50%
    16:00 +17°C° 0.1 mm 5 mps 753 mmHg 54%
    17:00 +16°C° 0.1 mm 5 mps 753 mmHg 58%
    18:00 +14°C° 0 mm 6 mps 753 mmHg 61%
    19:00 +11°C° 0 mm 6 mps 754 mmHg 63%
    20:00 +9°C° 0 mm 7 mps 754 mmHg 66%
    21:00 +8°C° 0 mm 6 mps 754 mmHg 64%
    22:00 +8°C° 0 mm 6 mps 755 mmHg 62%
    23:00 +7°C° 0 mm 5 mps 755 mmHg 60%

    23 April, Tuesday

    Time Temperature Precipitation Wind Pressure Humidity
    00:00 +7°C° 0 mm 5 mps 755 mmHg 62%
    01:00 +6°C° 0 mm 5 mps 755 mmHg 64%
    02:00 +6°C° 0 mm 4 mps 755 mmHg 66%
    03:00 +6°C° 0 mm 4 mps 755 mmHg 68%
    04:00 +6°C° 0 mm 4 mps 755 mmHg 69%
    05:00 +5°C° 0 mm 4 mps 755 mmHg 71%
    06:00 +6°C° 0 mm 5 mps 755 mmHg 69%
    07:00 +7°C° 0 mm 5 mps 756 mmHg 67%
    08:00 +8°C° 0 mm 6 mps 756 mmHg 65%
    09:00 +9°C° 0 mm 6 mps 756 mmHg 64%
    10:00 +10°C° 0 mm 6 mps 756 mmHg 62%
    11:00 +11°C° 0 mm 6 mps 756 mmHg 61%
    12:00 +13°C° 0 mm 6 mps 755 mmHg 60%
    13:00 +12°C° 0 mm 7 mps 754 mmHg 60%
    14:00 +14°C° 0 mm 7 mps 754 mmHg 59%
    15:00 +14°C° 0 mm 7 mps 754 mmHg 59%
    16:00 +14°C° 0 mm 7 mps 753 mmHg 58%
    17:00 +14°C° 0 mm 7 mps 753 mmHg 57%
    18:00 +12°C° 0 mm 7 mps 753 mmHg 58%
    19:00 +10°C° 0 mm 7 mps 753 mmHg 59%
    20:00 +9°C° 0 mm 7 mps 753 mmHg 60%
    21:00 +8°C° 0 mm 6 mps 753 mmHg 63%
    22:00 +8°C° 0 mm 6 mps 754 mmHg 66%
    23:00 +7°C° 0 mm 5 mps 754 mmHg 69%
    Show more